Kezdőlap
METAR-TAF:

METAR-TAF

Repülőterek :

Tri-County Regional Airport

Lone Rock, Wisconsin, Amerikai Egyesült Államok

földrajzi szélesség: 43-12-43N, földrajzi hosszúság: 090-10-53W, magasság: 219 m

Jelenlegi meteorológiai megfigyelések

A jelentés 45 perccel ezelõtt készült, 10:56 UTC
Szélcsend
Hőmérséklet 6°C
Páratartalom 87%
Légköri nyomás 1017 hPa
Látótávolság: 16.1 km
Derült ég

METAR: KLNR 171056Z AUTO 00000KT 10SM CLR 06/04 A3003 RMK AO2 SLP164 T00560044

Idő: 06:41 (11:41 UTC)


TAF: hiányzik

Meteorológiai megfigyelések és előrejelzések több, mint 4000 repülőtéren (METAR és TAF jelentéseket).

A térképen piros és sárga pontok jelzik az elérhető meteorológiai állomásokat.

Mozgassa az egeret a pont fölött, hogy megjelenjen az állomás neve.

Azután kattintson az időjárási megfigyelések és előrejelzések megtekintéséhez.

A térkép megváltoztatása: kattintson a fekete keresztel jelölt zöld gombra ráközelítéshez, a vonallal jelölt zöld gombra távolításhoz, vagy a zöld nyilakra a szomszédos térképek eléréséhez.


METAR-TAF: